User: anonymous   Login
Location: Caltech
(34.1382°N, 118.1253°W)
Time: 01:41:03
(UTC-07:00)
Language:

PANSAT - Orbit

View from above orbital plane
View from above orbital plane
View from above satellite
View from above satellite

Ground track
Ground track

The orbit data is extracted from the following two-line orbital elements,

1 25520U 98064B   18116.93455872 +.00000790 +00000-0 +19678-4 0  9992
2 25520 028.4601 006.7168 0004973 242.8717 117.1371 15.28809208082036
Epoch (UTC): 26 April 2018 22:25:45
Eccentricity: 0.0004973
inclination: 28.4601°
perigee height: 476 km
apogee height: 483 km
right ascension of ascending node: 6.7168°
argument of perigee: 242.8717°
revolutions per day: 15.28809208
mean anomaly at epoch: 117.1371°
orbit number at epoch: 8203

The dashed part of the orbit path shows where the satellite is in the earth's shadow,  

DLR